START_TIME,STEP,MOV.,M15,t_acc.,M20,t_acc.
1981-08-29 03:00:44.550 ,7,1,0.,24.0,0.,24.0
1981-08-29 03:01:08.550 ,7,1,0.,24.0,0.,24.0
1981-08-29 03:01:32.550 ,7,0,0.,24.0,0.,24.0
1981-08-29 03:01:56.550 ,6,1,0.,24.0,0.,24.0
1981-08-29 03:02:20.550 ,6,0,0.,24.0,0.,24.0
1981-08-29 03:02:44.550 ,5,1,0.,24.0,0.,24.0
1981-08-29 03:03:08.550 ,5,0,0.,24.0,0.,24.0
1981-08-29 03:03:32.550 ,4,1,0.,24.0,0.,24.0
1981-08-29 03:03:56.550 ,4,0,0.,24.0,0.,24.0
1981-08-29 03:04:20.550 ,3,1,0.,24.0,0.,24.0
1981-08-29 03:04:44.550 ,3,0,0.,24.0,0.,24.0
1981-08-29 03:05:08.550 ,2,1,0.,24.0,0.,24.0
1981-08-29 03:05:32.550 ,2,0,0.,24.0,0.,24.0
1981-08-29 03:05:56.550 ,1,1,0.,24.0,0.,24.0
1981-08-29 03:06:20.550 ,1,0,0.,24.0,0.,24.0
1981-08-29 03:06:44.550 ,0,1,1.,24.0,0.,24.0
1981-08-29 03:07:08.550 ,0,0,0.,24.0,0.,24.0
1981-08-29 03:07:32.550 ,0,1,0.,24.0,0.,24.0
1981-08-29 03:07:56.550 ,0,0,0.,24.0,0.,24.0
1981-08-29 03:08:20.550 ,1,1,0.,24.0,0.,24.0
1981-08-29 03:08:44.550 ,1,0,0.,24.0,0.,24.0
1981-08-29 03:09:08.550 ,2,1,0.,24.0,0.,24.0
1981-08-29 03:09:32.550 ,2,0,0.,24.0,0.,24.0
1981-08-29 03:09:56.550 ,3,1,0.,24.0,0.,24.0
1981-08-29 03:10:20.550 ,3,0,0.,24.0,0.,24.0
1981-08-29 03:10:44.550 ,4,1,0.,24.0,0.,24.0
1981-08-29 03:11:08.550 ,4,0,0.,24.0,0.,24.0
1981-08-29 03:11:32.550 ,5,1,0.,24.0,0.,24.0
1981-08-29 03:11:56.550 ,5,0,0.,24.0,0.,24.0
1981-08-29 03:12:20.550 ,6,1,0.,24.0,0.,24.0
1981-08-29 03:12:44.550 ,6,0,0.,24.0,0.,24.0
1981-08-29 03:13:08.550 ,7,1,0.,24.0,0.,24.0
1981-08-29 03:13:32.550 ,7,0,0.,24.0,0.,24.0
1981-08-29 03:13:56.550 ,7,1,0.,24.0,0.,24.0
1981-08-29 03:14:20.550 ,6,1,0.,24.0,0.,24.0
1981-08-29 03:14:44.550 ,5,1,0.,24.0,0.,24.0
1981-08-29 03:15:08.550 ,4,1,0.,24.0,0.,24.0
1981-08-29 03:15:32.550 ,3,1,0.,24.0,0.,24.0
1981-08-29 03:15:56.550 ,2,1,0.,24.0,0.,24.0
1981-08-29 03:16:20.550 ,1,1,0.,24.0,0.,24.0
1981-08-29 03:16:44.550 ,0,1,0.,24.0,0.,24.0
1981-08-29 03:17:08.550 ,0,1,0.,24.0,0.,24.0
1981-08-29 03:17:32.550 ,1,1,0.,24.0,0.,24.0
1981-08-29 03:17:56.550 ,2,1,0.,24.0,0.,24.0
1981-08-29 03:18:20.550 ,3,1,0.,24.0,0.,24.0
1981-08-29 03:18:44.550 ,4,1,0.,24.0,0.,24.0
1981-08-29 03:19:08.550 ,5,1,0.,24.0,0.,24.0
1981-08-29 03:19:32.550 ,6,1,0.,24.0,0.,24.0
1981-08-29 03:19:56.550 ,7,1,0.,24.0,0.,24.0
1981-08-29 03:20:20.550 ,7,1,0.,24.0,0.,24.0
1981-08-29 03:20:44.550 ,7,0,0.,24.0,0.,24.0
1981-08-29 03:21:08.550 ,6,1,0.,24.0,0.,24.0
1981-08-29 03:21:32.550 ,6,0,0.,24.0,0.,24.0
1981-08-29 03:21:56.550 ,5,1,0.,24.0,0.,24.0
1981-08-29 03:22:20.550 ,5,0,0.,24.0,0.,24.0
1981-08-29 03:22:44.550 ,4,1,0.,24.0,0.,24.0
1981-08-29 03:23:08.550 ,4,0,0.,24.0,0.,24.0
1981-08-29 03:23:32.550 ,3,1,0.,24.0,0.,24.0
1981-08-29 03:23:56.550 ,3,0,0.,24.0,0.,24.0
1981-08-29 03:24:20.550 ,2,1,0.,24.0,0.,24.0
1981-08-29 03:24:44.550 ,2,0,0.,24.0,0.,24.0
1981-08-29 03:25:08.550 ,1,1,0.,24.0,0.,24.0
1981-08-29 03:25:32.550 ,1,0,0.,24.0,0.,24.0
1981-08-29 03:25:56.550 ,0,1,0.,24.0,0.,24.0
1981-08-29 03:26:20.550 ,0,0,0.,24.0,0.,24.0
1981-08-29 03:26:44.550 ,0,1,0.,24.0,0.,24.0
1981-08-29 03:27:08.550 ,0,0,0.,24.0,0.,24.0
1981-08-29 03:27:32.550 ,1,1,0.,24.0,0.,24.0
1981-08-29 03:27:56.550 ,1,0,0.,24.0,0.,24.0
1981-08-29 03:28:20.550 ,2,1,0.,24.0,0.,24.0
1981-08-29 03:28:44.550 ,2,0,0.,24.0,0.,24.0
1981-08-29 03:29:08.550 ,3,1,0.,24.0,0.,24.0
1981-08-29 03:29:32.550 ,3,0,0.,24.0,0.,24.0
1981-08-29 03:29:56.550 ,4,1,0.,24.0,0.,24.0
1981-08-29 03:30:20.550 ,4,0,0.,24.0,0.,24.0
1981-08-29 03:30:44.550 ,5,1,0.,24.0,0.,24.0
1981-08-29 03:31:08.550 ,5,0,0.,24.0,0.,24.0
1981-08-29 03:31:32.550 ,6,1,0.,24.0,0.,24.0
1981-08-29 03:31:56.550 ,6,0,0.,24.0,0.,24.0
1981-08-29 03:32:20.550 ,7,1,0.,24.0,0.,24.0
1981-08-29 03:32:44.550 ,7,0,0.,24.0,0.,24.0
1981-08-29 03:33:08.550 ,7,1,0.,24.0,0.,24.0
1981-08-29 03:33:32.550 ,6,1,0.,24.0,0.,24.0
1981-08-29 03:33:56.550 ,5,1,0.,24.0,0.,24.0
1981-08-29 03:34:20.550 ,4,1,0.,24.0,0.,24.0
1981-08-29 03:34:44.550 ,3,1,0.,24.0,0.,24.0
1981-08-29 03:35:08.550 ,2,1,0.,24.0,0.,24.0
1981-08-29 03:35:32.550 ,1,1,0.,24.0,0.,24.0
1981-08-29 03:35:56.550 ,0,1,0.,24.0,0.,24.0
1981-08-29 03:36:20.550 ,0,1,0.,24.0,0.,24.0
1981-08-29 03:36:44.550 ,1,1,0.,24.0,0.,24.0
1981-08-29 03:37:08.550 ,2,1,0.,24.0,0.,24.0
1981-08-29 03:37:32.550 ,3,1,0.,24.0,0.,24.0
1981-08-29 03:37:56.550 ,4,1,0.,24.0,0.,24.0
1981-08-29 03:38:20.550 ,5,1,0.,24.0,0.,24.0
1981-08-29 03:38:44.550 ,6,1,0.,24.0,0.,24.0
1981-08-29 03:39:08.550 ,7,1,0.,24.0,0.,24.0
1981-08-29 03:39:32.550 ,7,1,0.,24.0,0.,24.0
1981-08-29 03:39:56.550 ,7,0,0.,24.0,0.,24.0
1981-08-29 03:40:20.550 ,6,1,0.,24.0,0.,24.0
1981-08-29 03:40:44.550 ,6,0,0.,24.0,0.,24.0
1981-08-29 03:41:08.550 ,5,1,0.,24.0,0.,24.0
1981-08-29 03:41:32.550 ,5,0,0.,24.0,0.,24.0
1981-08-29 03:41:56.550 ,4,1,0.,24.0,0.,24.0
1981-08-29 03:42:20.550 ,4,0,0.,24.0,0.,24.0
1981-08-29 03:42:44.550 ,3,1,0.,24.0,0.,24.0
1981-08-29 03:43:08.550 ,3,0,0.,24.0,0.,24.0
1981-08-29 03:43:32.550 ,2,1,0.,24.0,0.,24.0
1981-08-29 03:43:56.550 ,2,0,0.,24.0,0.,24.0
1981-08-29 03:44:20.550 ,1,1,0.,24.0,0.,24.0
1981-08-29 03:44:44.550 ,1,0,0.,24.0,0.,24.0
1981-08-29 03:45:08.550 ,0,1,0.,24.0,0.,24.0
1981-08-29 03:45:32.550 ,0,0,0.,24.0,0.,24.0
1981-08-29 03:45:56.550 ,0,1,0.,24.0,0.,24.0
1981-08-29 03:46:20.550 ,0,0,0.,24.0,0.,24.0
1981-08-29 03:46:44.550 ,1,1,0.,24.0,0.,24.0
1981-08-29 03:47:08.550 ,1,0,0.,24.0,0.,24.0
1981-08-29 03:47:32.550 ,2,1,0.,24.0,0.,24.0
1981-08-29 03:47:56.550 ,2,0,0.,24.0,0.,24.0
1981-08-29 03:48:20.550 ,3,1,0.,24.0,0.,24.0
1981-08-29 03:48:44.550 ,3,0,0.,24.0,0.,24.0
1981-08-29 03:49:08.550 ,4,1,0.,24.0,0.,24.0
1981-08-29 03:49:32.550 ,4,0,0.,24.0,0.,24.0
1981-08-29 03:49:56.550 ,5,1,0.,24.0,0.,24.0
1981-08-29 03:50:20.550 ,5,0,0.,24.0,0.,24.0
1981-08-29 03:50:44.550 ,6,1,0.,24.0,0.,24.0
1981-08-29 03:51:08.550 ,6,0,0.,24.0,0.,24.0
1981-08-29 03:51:32.550 ,7,1,0.,24.0,0.,24.0
1981-08-29 03:51:56.550 ,7,0,0.,24.0,0.,24.0
1981-08-29 03:52:20.550 ,7,1,0.,24.0,0.,24.0
1981-08-29 03:52:44.550 ,6,1,0.,24.0,0.,24.0
1981-08-29 03:53:08.550 ,5,1,0.,24.0,0.,24.0
1981-08-29 03:53:32.550 ,4,1,0.,24.0,0.,24.0
1981-08-29 03:53:56.550 ,3,1,0.,24.0,0.,24.0
1981-08-29 03:54:20.550 ,2,1,0.,24.0,0.,24.0
1981-08-29 03:54:44.550 ,1,1,0.,24.0,0.,24.0
1981-08-29 03:55:08.550 ,0,1,0.,24.0,0.,24.0
1981-08-29 03:55:32.550 ,0,1,0.,24.0,0.,24.0
1981-08-29 03:55:56.550 ,1,1,0.,24.0,0.,24.0
1981-08-29 03:56:20.550 ,2,1,0.,24.0,0.,24.0
1981-08-29 03:56:44.550 ,3,1,0.,24.0,0.,24.0
1981-08-29 03:57:08.550 ,4,1,0.,24.0,0.,24.0
1981-08-29 03:57:32.550 ,5,1,0.,24.0,0.,24.0
1981-08-29 03:57:56.550 ,6,1,0.,24.0,0.,24.0
1981-08-29 03:58:20.550 ,7,1,0.,24.0,0.,24.0
1981-08-29 03:58:44.550 ,7,1,0.,24.0,0.,24.0
1981-08-29 03:59:08.550 ,7,0,0.,24.0,0.,24.0
1981-08-29 03:59:32.550 ,6,1,0.,24.0,0.,24.0
1981-08-29 03:59:56.550 ,6,0,0.,24.0,0.,24.0
1981-08-29 04:00:20.550 ,5,1,0.,24.0,0.,24.0
1981-08-29 04:00:44.550 ,5,0,0.,24.0,0.,24.0
1981-08-29 04:01:08.550 ,4,1,0.,24.0,0.,24.0
1981-08-29 04:01:32.550 ,4,0,0.,24.0,0.,24.0
1981-08-29 04:01:56.550 ,3,1,0.,24.0,0.,24.0
1981-08-29 04:02:20.550 ,3,0,0.,24.0,0.,24.0
1981-08-29 04:02:44.550 ,2,1,0.,24.0,0.,24.0
1981-08-29 04:03:08.550 ,2,0,0.,24.0,0.,24.0
1981-08-29 04:03:32.550 ,1,1,0.,24.0,0.,24.0
1981-08-29 04:03:56.550 ,1,0,0.,24.0,0.,24.0
1981-08-29 04:04:20.550 ,0,1,0.,24.0,0.,24.0
1981-08-29 04:04:44.550 ,0,0,0.,24.0,0.,24.0
1981-08-29 04:05:22.350 ,0,0,0.,24.0,0.,24.0
1981-08-29 04:05:32.550 ,0,0,0.,24.0,0.,24.0
1981-08-29 04:05:56.550 ,1,1,0.,24.0,0.,24.0
1981-08-29 04:06:20.550 ,1,0,0.,24.0,0.,24.0
1981-08-29 04:06:44.550 ,2,1,0.,24.0,0.,24.0
1981-08-29 04:07:08.550 ,2,0,0.,24.0,0.,24.0
1981-08-29 04:07:32.550 ,3,1,0.,24.0,0.,24.0
1981-08-29 04:07:56.550 ,3,0,0.,24.0,0.,24.0
1981-08-29 04:08:20.550 ,4,1,0.,24.0,0.,24.0
1981-08-29 04:08:44.550 ,4,0,0.,24.0,0.,24.0
1981-08-29 04:09:08.550 ,5,1,0.,24.0,0.,24.0
1981-08-29 04:09:32.550 ,5,0,0.,24.0,0.,24.0
1981-08-29 04:09:56.550 ,6,1,0.,24.0,0.,24.0
1981-08-29 04:10:20.550 ,6,0,0.,24.0,0.,24.0
1981-08-29 04:10:44.550 ,7,1,0.,24.0,0.,24.0
1981-08-29 04:11:08.550 ,7,0,0.,24.0,0.,24.0
1981-08-29 04:11:32.550 ,7,1,0.,24.0,0.,24.0
1981-08-29 04:11:56.550 ,6,1,0.,24.0,0.,24.0
1981-08-29 04:12:20.550 ,5,1,0.,24.0,0.,24.0
1981-08-29 04:12:44.550 ,4,1,0.,24.0,0.,24.0
1981-08-29 04:13:08.550 ,3,1,0.,24.0,0.,24.0
1981-08-29 04:13:32.550 ,2,1,0.,24.0,0.,24.0
1981-08-29 04:13:56.550 ,1,1,0.,24.0,0.,24.0
1981-08-29 04:14:20.550 ,0,1,0.,24.0,0.,24.0
1981-08-29 04:14:44.550 ,0,1,0.,24.0,0.,24.0
1981-08-29 04:15:08.550 ,1,1,0.,24.0,0.,24.0
1981-08-29 04:15:32.550 ,2,1,0.,24.0,0.,24.0
1981-08-29 04:15:56.550 ,3,1,0.,24.0,0.,24.0
1981-08-29 04:16:20.550 ,4,1,0.,24.0,0.,24.0
1981-08-29 04:16:44.550 ,5,1,0.,24.0,0.,24.0
1981-08-29 04:17:08.550 ,6,1,0.,24.0,0.,24.0
1981-08-29 04:17:32.550 ,7,1,0.,24.0,0.,24.0
1981-08-29 04:17:56.550 ,7,1,0.,24.0,0.,24.0
1981-08-29 04:18:20.550 ,7,0,0.,24.0,0.,24.0
1981-08-29 04:18:44.550 ,6,1,0.,24.0,0.,24.0
1981-08-29 04:19:08.550 ,6,0,0.,24.0,0.,24.0
1981-08-29 04:19:32.550 ,5,1,0.,24.0,0.,24.0
1981-08-29 04:19:56.550 ,5,0,0.,24.0,0.,24.0
1981-08-29 04:20:20.550 ,4,1,0.,24.0,0.,24.0
1981-08-29 04:20:44.550 ,4,0,0.,24.0,0.,24.0
1981-08-29 04:21:08.550 ,3,1,0.,24.0,0.,24.0
1981-08-29 04:21:32.550 ,3,0,0.,24.0,0.,24.0
1981-08-29 04:21:56.550 ,2,1,0.,24.0,0.,24.0
1981-08-29 04:22:20.550 ,2,0,0.,24.0,0.,24.0
1981-08-29 04:22:44.550 ,1,1,0.,24.0,0.,24.0
1981-08-29 04:23:08.550 ,1,0,0.,24.0,0.,24.0
1981-08-29 04:23:32.550 ,0,1,0.,24.0,0.,24.0
1981-08-29 04:23:56.550 ,0,0,0.,24.0,0.,24.0
1981-08-29 04:24:20.550 ,0,1,0.,24.0,0.,24.0
1981-08-29 04:24:44.550 ,0,0,0.,24.0,0.,24.0
1981-08-29 04:25:08.550 ,1,1,0.,24.0,0.,24.0
1981-08-29 04:25:32.550 ,1,0,0.,24.0,0.,24.0
1981-08-29 04:25:56.550 ,2,1,0.,24.0,0.,24.0
1981-08-29 04:26:20.550 ,2,0,0.,24.0,0.,24.0
1981-08-29 04:26:44.550 ,3,1,0.,24.0,0.,24.0
1981-08-29 04:27:08.550 ,3,0,0.,24.0,0.,24.0
1981-08-29 04:27:32.550 ,4,1,0.,24.0,0.,24.0
1981-08-29 04:27:56.550 ,4,0,0.,24.0,0.,24.0
1981-08-29 04:28:20.550 ,5,1,0.,24.0,0.,24.0
1981-08-29 04:28:44.550 ,5,0,0.,24.0,0.,24.0
1981-08-29 04:29:08.550 ,6,1,0.,24.0,0.,24.0
1981-08-29 04:29:32.550 ,6,0,0.,24.0,0.,24.0
1981-08-29 04:29:56.550 ,7,1,0.,24.0,0.,24.0
1981-08-29 04:30:20.550 ,7,0,0.,24.0,0.,24.0
1981-08-29 04:30:44.550 ,7,1,0.,24.0,0.,24.0
1981-08-29 04:31:08.550 ,6,1,0.,24.0,0.,24.0
1981-08-29 04:31:32.550 ,5,1,0.,24.0,0.,24.0
1981-08-29 04:31:56.550 ,4,1,0.,24.0,0.,24.0
1981-08-29 04:32:20.550 ,3,1,0.,24.0,0.,24.0
1981-08-29 04:32:44.550 ,2,1,0.,24.0,0.,24.0
1981-08-29 04:33:08.550 ,1,1,0.,24.0,0.,24.0
1981-08-29 04:33:32.550 ,0,1,0.,24.0,0.,24.0
1981-08-29 04:33:56.550 ,0,1,0.,24.0,0.,24.0
1981-08-29 04:34:20.550 ,1,1,0.,24.0,0.,24.0
1981-08-29 04:34:44.550 ,2,1,0.,24.0,0.,24.0
1981-08-29 04:35:08.550 ,3,1,0.,24.0,0.,24.0
1981-08-29 04:35:32.550 ,4,1,0.,24.0,0.,24.0
1981-08-29 04:35:56.550 ,5,1,0.,24.0,0.,24.0
1981-08-29 04:36:20.550 ,6,1,0.,24.0,0.,24.0
1981-08-29 04:36:44.550 ,7,1,0.,24.0,0.,24.0
1981-08-29 04:37:08.550 ,7,1,0.,24.0,0.,24.0
1981-08-29 04:37:32.550 ,7,0,0.,24.0,0.,24.0
1981-08-29 04:37:56.550 ,6,1,0.,24.0,0.,24.0
1981-08-29 04:38:20.550 ,6,0,0.,24.0,0.,24.0
1981-08-29 04:38:44.550 ,5,1,0.,24.0,0.,24.0
1981-08-29 04:39:08.550 ,5,0,0.,24.0,0.,24.0
1981-08-29 04:39:32.550 ,4,1,0.,24.0,0.,24.0
1981-08-29 04:39:56.550 ,4,0,0.,24.0,0.,24.0
1981-08-29 04:40:20.550 ,3,1,0.,24.0,0.,24.0
1981-08-29 04:40:44.550 ,3,0,0.,24.0,0.,24.0
1981-08-29 04:41:08.550 ,2,1,0.,24.0,0.,24.0
1981-08-29 04:41:32.550 ,2,0,0.,24.0,0.,24.0
1981-08-29 04:41:56.550 ,1,1,0.,24.0,0.,24.0
1981-08-29 04:42:20.550 ,1,0,0.,24.0,0.,24.0
1981-08-29 04:42:44.550 ,0,1,0.,24.0,0.,24.0
1981-08-29 04:43:08.550 ,0,0,0.,24.0,0.,24.0
1981-08-29 04:43:32.550 ,0,1,0.,24.0,0.,24.0
1981-08-29 04:43:56.550 ,0,0,0.,24.0,0.,24.0
1981-08-29 04:44:20.550 ,1,1,0.,24.0,0.,24.0
1981-08-29 04:44:44.550 ,1,0,0.,24.0,0.,24.0
1981-08-29 04:45:08.550 ,2,1,0.,24.0,0.,24.0
1981-08-29 04:45:32.550 ,2,0,0.,24.0,0.,24.0
1981-08-29 04:45:56.550 ,3,1,0.,24.0,0.,24.0
1981-08-29 04:46:20.550 ,3,0,0.,24.0,0.,24.0
1981-08-29 04:46:44.550 ,4,1,0.,24.0,0.,24.0
1981-08-29 04:47:08.550 ,4,0,0.,24.0,0.,24.0
1981-08-29 04:47:32.550 ,5,1,0.,24.0,0.,24.0
1981-08-29 04:47:56.550 ,5,0,0.,24.0,0.,24.0
1981-08-29 04:48:20.550 ,6,1,0.,24.0,0.,24.0
1981-08-29 04:48:44.550 ,6,0,0.,24.0,0.,24.0
1981-08-29 04:49:08.550 ,7,1,0.,24.0,0.,24.0
1981-08-29 04:49:32.550 ,7,0,0.,24.0,0.,24.0
1981-08-29 04:49:56.550 ,7,1,0.,24.0,0.,24.0
1981-08-29 04:50:20.550 ,6,1,0.,24.0,0.,24.0
1981-08-29 04:50:44.550 ,5,1,0.,24.0,0.,24.0
1981-08-29 04:51:08.550 ,4,1,0.,24.0,0.,24.0
1981-08-29 04:51:32.550 ,3,1,0.,24.0,0.,24.0
1981-08-29 04:51:56.550 ,2,1,0.,24.0,0.,24.0
1981-08-29 04:52:20.550 ,1,1,0.,24.0,0.,24.0
1981-08-29 04:52:44.550 ,0,1,0.,24.0,0.,24.0
1981-08-29 04:53:08.550 ,0,1,0.,24.0,0.,24.0
1981-08-29 04:53:32.550 ,1,1,0.,24.0,0.,24.0
1981-08-29 04:53:56.550 ,2,1,0.,24.0,0.,24.0
1981-08-29 04:54:20.550 ,3,1,0.,24.0,0.,24.0
1981-08-29 04:54:44.550 ,4,1,0.,24.0,0.,24.0
1981-08-29 04:55:08.550 ,5,1,0.,24.0,0.,24.0
1981-08-29 04:55:32.550 ,6,1,0.,24.0,0.,24.0
1981-08-29 04:55:56.550 ,7,1,0.,24.0,0.,24.0
1981-08-29 04:56:20.550 ,7,1,0.,24.0,0.,24.0
1981-08-29 04:56:44.550 ,7,0,0.,24.0,0.,24.0
1981-08-29 04:57:08.550 ,6,1,0.,24.0,0.,24.0
1981-08-29 04:57:32.550 ,6,0,0.,24.0,0.,24.0
1981-08-29 04:57:56.550 ,5,1,0.,24.0,0.,24.0
1981-08-29 04:58:20.550 ,5,0,0.,24.0,0.,24.0
1981-08-29 04:58:44.550 ,4,1,0.,24.0,0.,24.0
1981-08-29 04:59:08.550 ,4,0,0.,24.0,0.,24.0
1981-08-29 04:59:32.550 ,3,1,0.,24.0,0.,24.0
1981-08-29 04:59:56.550 ,3,0,0.,24.0,0.,24.0
1981-08-29 05:00:20.550 ,2,1,0.,24.0,0.,24.0
1981-08-29 05:00:44.550 ,2,0,0.,24.0,0.,24.0
1981-08-29 05:01:08.550 ,1,1,0.,24.0,0.,24.0
1981-08-29 05:01:32.550 ,1,0,0.,24.0,0.,24.0
1981-08-29 05:01:56.550 ,0,1,0.,24.0,0.,24.0
1981-08-29 05:02:20.550 ,0,0,0.,24.0,0.,24.0
1981-08-29 05:02:44.550 ,0,1,0.,24.0,0.,24.0
1981-08-29 05:03:08.550 ,0,0,0.,24.0,0.,24.0
1981-08-29 05:03:32.550 ,1,1,0.,24.0,0.,24.0
1981-08-29 05:03:56.550 ,1,0,0.,24.0,0.,24.0
1981-08-29 05:04:20.550 ,2,1,0.,24.0,0.,24.0
1981-08-29 05:04:44.550 ,2,0,0.,24.0,0.,24.0
1981-08-29 05:05:08.550 ,3,1,0.,24.0,0.,24.0
1981-08-29 05:05:32.550 ,3,0,0.,24.0,0.,24.0
1981-08-29 05:05:56.550 ,4,1,0.,24.0,0.,24.0
1981-08-29 05:06:20.550 ,4,0,0.,24.0,0.,24.0
1981-08-29 05:06:44.550 ,5,1,0.,24.0,0.,24.0
1981-08-29 05:07:08.550 ,5,0,0.,24.0,0.,24.0
1981-08-29 05:07:32.550 ,6,1,0.,24.0,0.,24.0
1981-08-29 05:07:56.550 ,6,0,0.,24.0,0.,24.0
1981-08-29 05:08:20.550 ,7,1,0.,24.0,0.,24.0
1981-08-29 05:08:44.550 ,7,0,0.,24.0,0.,24.0
1981-08-29 05:09:08.550 ,7,1,0.,24.0,0.,24.0
1981-08-29 05:09:32.550 ,6,1,0.,24.0,0.,24.0
1981-08-29 05:09:56.550 ,5,1,0.,24.0,0.,24.0
1981-08-29 05:10:20.550 ,4,1,0.,24.0,0.,24.0
1981-08-29 05:10:44.550 ,3,1,0.,24.0,0.,24.0
1981-08-29 05:11:08.550 ,2,1,0.,24.0,0.,24.0
1981-08-29 05:11:32.550 ,1,1,0.,24.0,0.,24.0
1981-08-29 05:11:56.550 ,0,1,0.,24.0,0.,24.0
1981-08-29 05:12:20.550 ,0,1,0.,24.0,0.,24.0
1981-08-29 05:12:44.550 ,1,1,0.,24.0,0.,24.0
1981-08-29 05:13:08.550 ,2,1,0.,24.0,0.,24.0
1981-08-29 05:13:32.550 ,3,1,0.,24.0,0.,24.0
1981-08-29 05:13:56.550 ,4,1,0.,24.0,0.,24.0
1981-08-29 05:14:20.550 ,5,1,0.,24.0,0.,24.0
1981-08-29 05:14:44.550 ,6,1,0.,24.0,0.,24.0
1981-08-29 05:15:08.550 ,7,1,0.,24.0,0.,24.0
1981-08-29 05:15:32.550 ,7,1,0.,24.0,0.,24.0
1981-08-29 05:15:56.550 ,7,0,0.,24.0,0.,24.0
1981-08-29 05:16:20.550 ,6,1,0.,24.0,0.,24.0
1981-08-29 05:16:44.550 ,6,0,0.,24.0,0.,24.0
1981-08-29 05:17:08.550 ,5,1,0.,24.0,0.,24.0
1981-08-29 05:17:32.550 ,5,0,0.,24.0,0.,24.0
1981-08-29 05:17:56.550 ,4,1,0.,24.0,0.,24.0
1981-08-29 05:18:20.550 ,4,0,0.,24.0,0.,24.0
1981-08-29 05:18:44.550 ,3,1,0.,24.0,0.,24.0
1981-08-29 05:19:08.550 ,3,0,0.,24.0,0.,24.0
1981-08-29 05:19:32.550 ,2,1,0.,24.0,0.,24.0
1981-08-29 05:19:56.550 ,2,0,0.,24.0,0.,24.0
1981-08-29 05:20:20.550 ,1,1,0.,24.0,0.,24.0
1981-08-29 05:20:44.550 ,1,0,0.,24.0,0.,24.0
1981-08-29 05:21:08.550 ,0,1,0.,24.0,0.,24.0
1981-08-29 05:21:32.550 ,0,0,0.,24.0,0.,24.0
1981-08-29 05:21:56.550 ,0,1,0.,24.0,0.,24.0
1981-08-29 05:22:20.550 ,0,0,0.,24.0,0.,24.0
1981-08-29 05:22:44.550 ,1,1,0.,24.0,0.,24.0
1981-08-29 05:23:08.550 ,1,0,0.,24.0,0.,24.0
1981-08-29 05:23:32.550 ,2,1,0.,24.0,0.,24.0
1981-08-29 05:23:56.550 ,2,0,0.,24.0,0.,24.0
1981-08-29 05:24:20.550 ,3,1,0.,24.0,0.,24.0
1981-08-29 05:24:44.550 ,3,0,0.,24.0,0.,24.0
1981-08-29 05:25:08.550 ,4,1,0.,24.0,0.,24.0
1981-08-29 05:25:32.550 ,4,0,0.,24.0,0.,24.0
1981-08-29 05:25:56.550 ,5,1,0.,24.0,0.,24.0
1981-08-29 05:26:20.550 ,5,0,0.,24.0,0.,24.0
1981-08-29 05:26:44.550 ,6,1,0.,24.0,0.,24.0
1981-08-29 05:27:08.550 ,6,0,0.,24.0,0.,24.0
1981-08-29 05:27:32.550 ,7,1,0.,24.0,0.,24.0
1981-08-29 05:27:56.550 ,7,0,0.,24.0,0.,24.0
1981-08-29 05:28:20.550 ,7,1,0.,24.0,0.,24.0
1981-08-29 05:28:44.550 ,6,1,0.,24.0,0.,24.0
1981-08-29 05:29:08.550 ,5,1,0.,24.0,0.,24.0
1981-08-29 05:29:32.550 ,4,1,0.,24.0,0.,24.0
1981-08-29 05:29:56.550 ,3,1,0.,24.0,0.,24.0
1981-08-29 05:30:20.550 ,2,1,0.,24.0,0.,24.0
1981-08-29 05:30:44.550 ,1,1,0.,24.0,0.,24.0
1981-08-29 05:31:08.550 ,0,1,0.,24.0,0.,24.0
1981-08-29 05:31:32.550 ,0,1,0.,24.0,0.,24.0
1981-08-29 05:31:56.550 ,1,1,0.,24.0,0.,24.0
1981-08-29 05:32:20.550 ,2,1,0.,24.0,0.,24.0
1981-08-29 05:32:44.550 ,3,1,0.,24.0,0.,24.0
1981-08-29 05:33:08.550 ,4,1,0.,24.0,0.,24.0
1981-08-29 05:33:32.550 ,5,1,0.,24.0,0.,24.0
1981-08-29 05:33:56.550 ,6,1,0.,24.0,0.,24.0
1981-08-29 05:34:20.540 ,7,1,0.,24.0,0.,24.0
1981-08-29 05:34:44.540 ,7,1,0.,24.0,0.,24.0
1981-08-29 05:35:08.540 ,7,0,0.,24.0,0.,24.0
1981-08-29 05:35:32.540 ,6,1,0.,24.0,0.,24.0
1981-08-29 05:35:56.540 ,6,0,0.,24.0,0.,24.0
1981-08-29 05:36:20.540 ,5,1,0.,24.0,0.,24.0
1981-08-29 05:36:44.540 ,5,0,0.,24.0,0.,24.0
1981-08-29 05:37:08.540 ,4,1,0.,24.0,0.,24.0
1981-08-29 05:37:32.540 ,4,0,0.,24.0,0.,24.0
1981-08-29 05:37:56.540 ,3,1,0.,24.0,0.,24.0
1981-08-29 05:38:20.540 ,3,0,0.,24.0,0.,24.0
1981-08-29 05:38:44.540 ,2,1,0.,24.0,0.,24.0
1981-08-29 05:39:08.540 ,2,0,0.,24.0,0.,24.0
1981-08-29 05:39:32.540 ,1,1,0.,24.0,0.,24.0
1981-08-29 05:39:56.540 ,1,0,0.,24.0,0.,24.0
1981-08-29 05:40:20.540 ,0,1,0.,24.0,0.,24.0
1981-08-29 05:40:44.540 ,0,0,0.,24.0,0.,24.0
1981-08-29 05:41:08.540 ,0,1,0.,24.0,0.,24.0
1981-08-29 05:41:32.540 ,0,0,0.,24.0,0.,24.0
1981-08-29 05:41:56.540 ,1,1,0.,24.0,0.,24.0
1981-08-29 05:42:20.540 ,1,0,0.,24.0,0.,24.0
1981-08-29 05:42:44.540 ,2,1,0.,24.0,0.,24.0
1981-08-29 05:43:08.540 ,2,0,0.,24.0,0.,24.0
1981-08-29 05:43:32.540 ,3,1,0.,24.0,0.,24.0
1981-08-29 05:43:56.540 ,3,0,0.,24.0,0.,24.0
1981-08-29 05:44:20.540 ,4,1,0.,24.0,0.,24.0
1981-08-29 05:44:44.540 ,4,0,0.,24.0,0.,24.0
1981-08-29 05:45:08.540 ,5,1,0.,24.0,0.,24.0
1981-08-29 05:45:32.540 ,5,0,1.,24.0,0.,24.0
1981-08-29 05:45:56.540 ,6,1,0.,24.0,0.,24.0
1981-08-29 05:46:20.540 ,6,0,0.,24.0,0.,24.0
1981-08-29 05:46:44.540 ,7,1,0.,24.0,0.,24.0
1981-08-29 05:47:08.540 ,7,0,0.,24.0,0.,24.0
1981-08-29 05:47:32.540 ,7,1,0.,24.0,0.,24.0
1981-08-29 05:47:56.540 ,6,1,0.,24.0,0.,24.0
1981-08-29 05:48:20.540 ,5,1,0.,24.0,0.,24.0
1981-08-29 05:48:44.540 ,4,1,0.,24.0,0.,24.0
1981-08-29 05:49:08.540 ,3,1,0.,24.0,0.,24.0
1981-08-29 05:49:32.540 ,2,1,0.,24.0,0.,24.0
1981-08-29 05:49:56.540 ,1,1,0.,24.0,0.,24.0
1981-08-29 05:50:20.540 ,0,0,0.,24.0,0.,24.0
1981-08-29 05:50:51.140 ,0,0,0.,24.0,0.,24.0
1981-08-29 05:51:08.540 ,1,1,0.,24.0,0.,24.0
1981-08-29 05:51:32.540 ,2,1,0.,24.0,0.,24.0
1981-08-29 05:51:56.540 ,3,1,0.,24.0,0.,24.0
1981-08-29 05:52:20.540 ,4,1,0.,24.0,0.,24.0
1981-08-29 05:52:44.540 ,5,1,0.,24.0,0.,24.0
1981-08-29 05:53:08.540 ,6,1,0.,24.0,0.,24.0
1981-08-29 05:53:32.540 ,7,1,0.,24.0,0.,24.0
1981-08-29 05:53:56.540 ,7,1,0.,24.0,0.,24.0
1981-08-29 05:54:20.540 ,7,0,0.,24.0,0.,24.0
1981-08-29 05:54:44.540 ,6,1,0.,24.0,0.,24.0
1981-08-29 05:55:08.540 ,6,0,0.,24.0,0.,24.0
1981-08-29 05:55:32.540 ,5,1,0.,24.0,0.,24.0
1981-08-29 05:55:56.540 ,5,0,0.,24.0,0.,24.0
1981-08-29 05:56:20.540 ,4,1,0.,24.0,0.,24.0
1981-08-29 05:56:44.540 ,4,0,0.,24.0,0.,24.0
1981-08-29 05:57:08.540 ,3,1,0.,24.0,0.,24.0
1981-08-29 05:57:32.540 ,3,0,0.,24.0,0.,24.0
1981-08-29 05:57:56.540 ,2,1,0.,24.0,0.,24.0
1981-08-29 05:58:20.540 ,2,0,0.,24.0,0.,24.0
1981-08-29 05:58:44.540 ,1,1,0.,24.0,0.,24.0
1981-08-29 05:59:08.540 ,1,0,0.,24.0,0.,24.0
1981-08-29 05:59:32.540 ,0,1,0.,24.0,0.,24.0
1981-08-29 05:59:56.540 ,0,0,0.,24.0,0.,24.0
1981-08-29 06:00:20.540 ,0,1,0.,24.0,0.,24.0
